Location: Celina Division
(33.3022°N, 96.7580°W)
Time: 10:24:04
(UTC+00:00)

Cosmos 1812 - Pass Details

Date: 03 July 2022
Orbit: 508 x 515 km, 82.5° (Epoch: 14 August)

Event Time Altitude Azimuth Distance (km) Brightness Sun altitude
Rises 08:06:09 0° 349° (N) 2,631 7.1 -29.4°
Reaches altitude 10° 08:08:18 10° 346° (NNW) 1,740 5.9 -29.2°
Enters shadow 08:09:36 20° 342° (NNW) 1,221 5.0 -29.1°
